UNISAT 3

Satellite information

Favourite Embed

Satellite Type and Status

PAYLOADIN ORBIT

Key statistics

Satellite UNISAT 3 at a glance.

Uptime

7783

Days in orbit

Revolutions

≈ 14.5

Per day

Orbit

SSO

Sun Synchronous Orbit

Inclination

98.7

Latest

Satellite identification and parameters

Extended collection of information and parameters for UNISAT 3.

Object identification

Identified? True

Debris? False

Object name: UNISAT 3

International designator: 2004-025H

Object number (NORAD): 28373

Object ID (CCSDS): 28373

Country: ITALY (IT)

Current information (Y/N): Y

RCS size: MEDIUM

Orbital parameters

Period: 99.398 minutes

Inclination: 98.6933 deg

SMA: 7107.963 km

Apoapsis: 776.502 km

Periapsis: 683.153 km

RAAN: 289.5673 deg

Eccentricy: 0.00656645

Argument of periapsis: 2.2694 deg

Mean anomaly: 357.8784 deg

Mean motion: 14.48722023 rev/day

Mean motion (dot): 0.00001257 rev/day2

B* drag term: 0.0003373103 1/REarth

Two-line elements (TLE)

Creation date: Oct. 19, 2025, 2:20 a.m.

Reference frame: TEME

Reference center: EARTH

Epoch: Oct. 18, 2025, 10:34 p.m. UTC

TLE line 0: 0 UNISAT 3

TLE line 1: 1 28373U 04025H 25291.94046445 .00001257 00000-0 33731-3 0 9994

TLE line 2: 2 28373 98.6933 289.5673 0065665 2.2694 357.8784 14.48722023124118

Live tracking on map

Real-time ground track for satellite UNISAT 3.

In-orbit conjunctions

There are no conjunctions computed for UNISAT 3, at the moment. Check back to stay up to date, as we update our databases every day.

Go to all conjunctions

Associated space launch

AprizeSat, is a constellation of small Low-Earth-Orbit satellites (64 satellites planned) to achieve a global communication system of data transmission and fixed and mobile asset tracking and monitoring (GMPCS).

UNISAT 3 was lifted into orbit during the mission ‘Dnepr | Aprizesat-2’, on board a Dnepr space rocket.

The launch took place on June 29, 2004, 6:30 a.m. from 109/95.

For more information about the launch, click the button.

Launch to space Dnepr | Aprizesat-2
Dnepr | Aprizesat-2

Agency: N/A

Status: Launch Successful

Launch date: June 29, 2004, 6:30 a.m. UTC

Rocket: Dnepr

Launch pad: 109/95

Location: Baikonur Cosmodrome, Republic of Kazakhstan

...

Latest news about this satellite

There are no fresh news available about this satellite. Check back as we update our databases every day.


Newsletter sign-up

Weekly statistics, charts and insights to help you stay on top of the space industry.